Torna al catalogo

FENGYUN 1C DEB

LostPO
NORAD 37410·DEBRIS·🇨🇳 China

Lanciato May 10, 1999 da Taiyuan Satellite Launch Center

Loading…

Prossimi Passaggi (prossime 24 ore)

TLE

ObsoletoSource: Space-Track

Epoca: Apr 21, 2023, 05:35 UTC

1 37410U 99025EGC 23111.23265540  .00003342  00000-0  24613-2 0  9995
2 37410  98.0946 115.0119 0128193 258.5356 100.1388 13.92286541776911

Traccia FENGYUN 1C DEB in tempo reale con AllMySat

Download on the App Store